Weather History for KVES - August, 2013

Change the Weather History Date:

Monday, August 26, 2013

  Actual Average (KDAY) Record (KDAY)
Temperature  
Mean Temperature 72 °F 72 °F  
Max Temperature 86 °F 82 °F 96 °F (1948)
Min Temperature 59 °F 62 °F 48 °F (1963)
Degree Days  
Heating Degree Days 0 0  
Month to date heating degree days 0  
Since 1 June heating degree days 22  
Since 1 July heating degree days 0  
Cooling Degree Days 8 7  
Month to date cooling degree days 210  
Year to date cooling degree days 749  
Since 1 June cooling degree days 679  
Growing Degree Days 22 (Base 50)    
Moisture  
Dew Point 64 °F    
Average Humidity 76    
Maximum Humidity 94    
Minimum Humidity 45    
Precipitation  
Precipitation 0.00 in 0.10 in 2.16 in (1992)
Month to date precipitation 2.47  
Year to date precipitation 27.79  
Snow  
Snow 0.00 in 0.00 in 0.00 in ()
Month to date snowfall 0.0  
Since 1 June snowfall 0.0  
Since 1 July snowfall 0.0  
Snow Depth -    
Sea Level Pressure  
Sea Level Pressure 30.18 in    
Wind  
Wind Speed 4 mph (WSW)    
Max Wind Speed 14 mph    
Max Gust Speed 20 mph    
Visibility 10 miles    
Events      
T = Trace of Precipitation, MM = Missing Value Source: NWS Daily Summary

Daily Weather History Graph

Daily Weather History Graph

Search for Another Location

Airport or City:

Trip Planner

Search our weather history database for the weather conditions in past years. The results will help you decide how hot, cold, wet, or windy it might be!

Date:

Astronomy

Aug. 26, 2013 Rise Set
Actual Time 7:00 AM EDT 8:18 PM EDT
Civil Twilight 6:31 AM EDT 8:46 PM EDT
Nautical Twilight 5:58 AM EDT 9:20 PM EDT
Astronomical Twilight 5:22 AM EDT 9:56 PM EDT
Moon 11:28 PM EDT (8/26) 1:01 PM EDT (8/26)
Length of Visible Light 14h 15m
Length of Day
13h 18m
Waning Gibbous, 67% of the Moon is Illuminated
Aug 26
Waning Gibbous
Aug 28
Last Quarter
Sep 5
New
Sep 12
First Quarter
Sep 19
Full

Hourly Weather History & Observations

Time (EDT) Temp. Heat Index Dew Point Humidity Pressure Visibility Wind Dir Wind Speed Gust Speed Precip Events Conditions
12:15 AM 64.4 °F - 59.0 °F 83% 30.26 in 10.0 mi South 3.5 mph - N/A   Clear
12:35 AM 62.6 °F - 59.0 °F 88% 30.27 in 10.0 mi Calm Calm - N/A   Clear
12:55 AM 62.6 °F - 59.0 °F 88% 30.26 in 10.0 mi Calm Calm - N/A   Clear
1:15 AM 62.6 °F - 59.0 °F 88% 30.26 in 10.0 mi Calm Calm - N/A   Clear
1:35 AM 60.8 °F - 59.0 °F 94% 30.26 in 10.0 mi Calm Calm - N/A   Clear
1:55 AM 60.8 °F - 59.0 °F 94% 30.25 in 10.0 mi Calm Calm - N/A   Clear
2:15 AM 62.6 °F - 59.0 °F 88% 30.24 in 10.0 mi Calm Calm - N/A   Clear
2:35 AM 62.6 °F - 59.0 °F 88% 30.24 in 10.0 mi Calm Calm - N/A   Clear
2:55 AM 60.8 °F - 59.0 °F 94% 30.23 in 10.0 mi Calm Calm - N/A   Clear
3:15 AM 60.8 °F - 59.0 °F 94% 30.22 in 10.0 mi Calm Calm - N/A   Clear
3:35 AM 60.8 °F - 59.0 °F 94% 30.22 in 10.0 mi Calm Calm - N/A   Clear
3:55 AM 60.8 °F - 59.0 °F 94% 30.22 in 10.0 mi Calm Calm - N/A   Clear
4:15 AM 60.8 °F - 59.0 °F 94% 30.22 in 10.0 mi Calm Calm - N/A   Clear
4:35 AM 60.8 °F - 57.2 °F 88% 30.22 in 10.0 mi SW 3.5 mph - N/A   Clear
4:55 AM 60.8 °F - 57.2 °F 88% 30.22 in 10.0 mi Calm Calm - N/A   Clear
5:15 AM 59.0 °F - 57.2 °F 94% 30.22 in 10.0 mi Calm Calm - N/A   Clear
5:35 AM 59.0 °F - 57.2 °F 94% 30.22 in 10.0 mi SW 3.5 mph - N/A   Clear
5:55 AM 59.0 °F - 57.2 °F 94% 30.22 in 10.0 mi WSW 3.5 mph - N/A   Clear
6:15 AM 60.8 °F - 57.2 °F 88% 30.22 in 10.0 mi WSW 4.6 mph - N/A   Clear
6:35 AM 60.8 °F - 57.2 °F 88% 30.22 in 10.0 mi WSW 4.6 mph - N/A   Clear
6:55 AM 59.0 °F - 57.2 °F 94% 30.23 in 10.0 mi WSW 4.6 mph - N/A   Clear
7:15 AM 60.8 °F - 57.2 °F 88% 30.23 in 10.0 mi SW 3.5 mph - N/A   Clear
7:35 AM 60.8 °F - 59.0 °F 94% 30.23 in 10.0 mi SW 3.5 mph - N/A   Clear
7:55 AM 62.6 °F - 59.0 °F 88% 30.24 in 10.0 mi SW 3.5 mph - N/A   Clear
8:15 AM 64.4 °F - 60.8 °F 88% 30.25 in 10.0 mi Calm Calm - N/A   Clear
8:35 AM 66.2 °F - 62.6 °F 88% 30.25 in 10.0 mi SW 3.5 mph - N/A   Clear
8:55 AM 68.0 °F - 64.4 °F 88% 30.25 in 10.0 mi WSW 3.5 mph - N/A   Clear
9:15 AM 71.6 °F - 68.0 °F 88% 30.25 in 10.0 mi West 6.9 mph - N/A   Clear
9:35 AM 73.4 °F - 69.8 °F 88% 30.24 in 10.0 mi West 4.6 mph - N/A   Clear
9:55 AM 75.2 °F - 69.8 °F 83% 30.24 in 10.0 mi West 8.1 mph - N/A   Clear
10:15 AM 77.0 °F - 69.8 °F 78% 30.22 in 10.0 mi West 6.9 mph - N/A   Clear
10:35 AM 78.8 °F - 69.8 °F 74% 30.23 in 10.0 mi West 9.2 mph - N/A   Clear
10:55 AM 80.6 °F 83.9 °F 69.8 °F 70% 30.22 in 10.0 mi West 12.7 mph - N/A   Clear
11:15 AM 80.6 °F 83.9 °F 69.8 °F 70% 30.23 in 10.0 mi WNW 12.7 mph 18.4 mph N/A   Clear
11:35 AM 82.4 °F 86.3 °F 69.8 °F 66% 30.23 in 10.0 mi WNW 12.7 mph 19.6 mph N/A   Scattered Clouds
11:55 AM 82.4 °F 86.3 °F 69.8 °F 66% 30.23 in 10.0 mi WNW 13.8 mph 18.4 mph N/A   Scattered Clouds
12:15 PM 82.4 °F 85.4 °F 68.0 °F 62% 30.22 in 10.0 mi WNW 12.7 mph 17.3 mph N/A   Scattered Clouds
12:35 PM 82.4 °F 84.6 °F 66.2 °F 58% 30.21 in 10.0 mi WNW 11.5 mph 17.3 mph N/A   Scattered Clouds
12:55 PM 86.0 °F 87.3 °F 64.4 °F 48% 30.20 in 10.0 mi West 12.7 mph 16.1 mph N/A   Scattered Clouds
1:15 PM 86.0 °F 87.3 °F 64.4 °F 48% 30.20 in 10.0 mi WNW 10.4 mph - N/A   Mostly Cloudy
1:35 PM 86.0 °F 87.3 °F 64.4 °F 48% 30.19 in 10.0 mi West 9.2 mph 18.4 mph N/A   Scattered Clouds
1:55 PM 86.0 °F 87.3 °F 64.4 °F 48% 30.19 in 10.0 mi WNW 10.4 mph 16.1 mph N/A   Scattered Clouds
2:15 PM 84.2 °F 86.6 °F 66.2 °F 55% 30.18 in 10.0 mi NW 9.2 mph - N/A   Scattered Clouds
2:35 PM 84.2 °F 86.6 °F 66.2 °F 55% 30.17 in 10.0 mi West 6.9 mph - N/A   Scattered Clouds
2:55 PM 84.2 °F 86.6 °F 66.2 °F 55% 30.16 in 10.0 mi WSW 8.1 mph - N/A   Scattered Clouds
3:15 PM 86.0 °F 87.3 °F 64.4 °F 48% 30.15 in 10.0 mi WSW 10.4 mph - N/A   Clear
3:35 PM 86.0 °F 87.3 °F 64.4 °F 48% 30.14 in 10.0 mi West 8.1 mph - N/A   Scattered Clouds
3:55 PM 86.0 °F 87.3 °F 64.4 °F 48% 30.14 in 10.0 mi West 6.9 mph - N/A   Scattered Clouds
4:15 PM 86.0 °F 88.2 °F 66.2 °F 51% 30.12 in 10.0 mi West 10.4 mph - N/A   Scattered Clouds
4:35 PM 86.0 °F 86.6 °F 62.6 °F 45% 30.12 in 10.0 mi WSW 10.4 mph 16.1 mph N/A   Scattered Clouds
4:55 PM 84.2 °F 85.6 °F 64.4 °F 51% 30.11 in 10.0 mi West 12.7 mph - N/A   Clear
5:15 PM 86.0 °F 88.2 °F 66.2 °F 51% 30.10 in 10.0 mi WSW 12.7 mph - N/A   Clear
5:35 PM 84.2 °F 86.6 °F 66.2 °F 55% 30.10 in 10.0 mi West 10.4 mph - N/A   Clear
5:55 PM 86.0 °F 88.2 °F 66.2 °F 51% 30.10 in 10.0 mi WSW 12.7 mph - N/A   Clear
6:15 PM 84.2 °F 85.6 °F 64.4 °F 51% 30.10 in 10.0 mi WSW 11.5 mph 17.3 mph N/A   Clear
6:35 PM 82.4 °F 83.9 °F 64.4 °F 54% 30.10 in 10.0 mi WSW 9.2 mph - N/A   Clear
6:55 PM 80.6 °F 82.7 °F 66.2 °F 61% 30.10 in 10.0 mi WSW 5.8 mph - N/A   Clear
7:15 PM 80.6 °F 83.2 °F 68.0 °F 65% 30.10 in 10.0 mi WSW 4.6 mph - N/A   Clear
7:35 PM 78.8 °F - 68.0 °F 69% 30.10 in 10.0 mi WSW 3.5 mph - N/A   Clear
7:55 PM 78.8 °F - 68.0 °F 69% 30.11 in 10.0 mi West 3.5 mph - N/A   Mostly Cloudy
8:15 PM 77.0 °F - 68.0 °F 74% 30.11 in 10.0 mi West 3.5 mph - N/A   Mostly Cloudy
8:35 PM 77.0 °F - 68.0 °F 74% 30.10 in 10.0 mi WSW 3.5 mph - N/A   Scattered Clouds
8:55 PM 73.4 °F - 69.8 °F 88% 30.10 in 10.0 mi WSW 3.5 mph - N/A   Clear
9:15 PM 73.4 °F - 69.8 °F 88% 30.10 in 10.0 mi WSW 3.5 mph - N/A   Clear
9:35 PM 71.6 °F - 68.0 °F 88% 30.11 in 10.0 mi SW 3.5 mph - N/A   Clear
9:55 PM 73.4 °F - 69.8 °F 88% 30.10 in 10.0 mi Calm Calm - N/A   Clear
10:15 PM 73.4 °F - 69.8 °F 88% 30.10 in 10.0 mi SW 3.5 mph - N/A   Clear
10:35 PM 71.6 °F - 68.0 °F 88% 30.10 in 7.0 mi WSW 3.5 mph - N/A   Clear
10:55 PM 69.8 °F - 68.0 °F 94% 30.10 in 10.0 mi WSW 5.8 mph - N/A   Clear
11:15 PM 69.8 °F - 68.0 °F 94% 30.09 in 7.0 mi WSW 5.8 mph - N/A   Clear
11:35 PM 69.8 °F - 68.0 °F 94% 30.09 in 7.0 mi WSW 4.6 mph - N/A   Clear
11:55 PM 71.6 °F - 68.0 °F 88% 30.09 in 7.0 mi WSW 4.6 mph - N/A   Clear